EW8576 Weather Reports


time (UTC)temp
C
wind
direction
speed
KPH
gust
KPH
rain 1hr
cm
rain 24hr
cm
rain mn
cm
humidity
%
barometer
mb
20260504110432 3 0 0.0 0.0 0.00 0.00 0.00 1 1010.3
20260504081851 3 292 0.0 0.0 0.00 0.00 0.00 1 1009.8
20260504081351 3 292 0.0 0.0 0.00 0.00 0.00 1 1009.8
20260504080850 3 292 0.0 0.0 0.00 0.00 0.00 1 1009.8
20260504080614 3 292 0.0 0.0 0.00 0.00 0.00 1 1009.9
20260504070341 2 292 0.0 0.0 0.00 0.00 0.00 1 1009.6
20260504050648 3 292 0.0 0.0 0.00 0.00 0.00 1 1009.4
20260504050143 3 292 0.0 0.0 0.00 0.00 0.00 1 1009.5
20260504045637 3 292 0.0 0.0 0.00 0.00 0.00 1 1009.6
20260504045359 3 292 0.0 0.0 0.00 0.00 0.00 1 1009.6
20260504044624 3 292 0.0 0.0 0.00 0.00 0.00 1 1009.7
20260504044118 3 292 0.0 0.0 0.00 0.00 0.00 1 1009.6
20260504043613 3 292 0.0 0.0 0.00 0.00 0.00 1 1009.5
20260504043107 4 292 0.0 0.0 0.00 0.00 0.00 1 1009.5
20260504042601 4 292 0.0 0.0 0.00 0.00 0.00 1 1009.4
20260504042054 4 292 0.0 0.0 0.00 0.00 0.00 1 1009.5
20260504041549 4 292 0.0 0.0 0.00 0.00 0.00 1 1009.5
20260504041043 4 292 0.0 0.0 0.00 0.00 0.00 1 1009.5
20260504040538 4 292 0.0 0.0 0.00 0.00 0.00 1 1009.6
20260504040031 5 292 0.0 0.0 0.00 0.00 0.00 1 1009.5
20260504035525 5 292 0.0 0.0 0.00 0.00 0.00 1 1009.4
20260504035019 5 292 0.0 0.0 0.00 0.00 0.00 1 1009.4
20260504034513 5 292 0.0 0.0 0.00 0.00 0.00 1 1009.4
20260504034007 5 292 0.0 0.0 0.00 0.00 0.00 1 1009.5
20260504033501 5 292 0.0 0.0 0.00 0.00 0.00 1 1009.4
20260504032954 5 292 0.0 0.0 0.00 0.00 0.00 1 1009.4
20260504032711 5 292 0.0 0.0 0.00 0.00 0.00 1 1009.4
20260504031943 5 292 0.0 0.0 0.00 0.00 0.00 1 1009.3
20260504031630 6 292 0.0 0.0 0.00 0.00 0.00 1 1009.4
20260504031517 5 292 0.0 0.0 0.00 0.00 0.00 1 1009.3
20260504030425 6 292 0.0 0.0 0.00 0.00 0.00 1 1009.3
20260504025918 6 292 0.0 0.0 0.00 0.00 0.00 1 1009.3
20260504025413 6 292 0.0 0.0 0.00 0.00 0.00 1 1009.3
20260504024907 6 292 0.0 0.0 0.00 0.00 0.00 1 1009.3
20260504024401 6 292 0.0 0.0 0.00 0.00 0.00 4 1009.2
20260504023854 6 292 0.0 0.0 0.00 0.00 0.00 7 1009.2
20260504023349 6 292 0.0 0.0 0.00 0.00 0.00 15 1009.2
20260504022843 6 292 0.0 0.0 0.00 0.00 0.00 20 1009.2
20260504022337 6 292 0.0 0.0 0.00 0.00 0.00 29 1009.2
20260504021831 6 292 0.0 0.0 0.00 0.00 0.00 33 1009.3
20260504021325 6 292 0.0 0.0 0.00 0.00 0.00 24 1009.3
20260504021041 7 292 0.0 0.0 0.00 0.00 0.00 20 1009.3
20260504020313 7 292 0.0 0.0 0.00 0.00 0.00 17 1009.2
20260504015811 7 292 0.0 0.0 0.00 0.00 0.00 25 1009.2
20260504015310 7 292 0.0 0.0 0.00 0.00 0.00 23 1009.1
20260504014809 7 292 0.0 0.0 0.00 0.00 0.00 27 1009.1
20260504014307 7 292 0.0 0.0 0.00 0.00 0.00 28 1009.1
20260504013807 7 292 0.0 0.0 0.00 0.00 0.00 38 1009.1
20260504013307 8 292 0.0 0.0 0.00 0.00 0.00 41 1009.2
20260504012805 8 292 0.0 0.0 0.00 0.00 0.00 43 1009.2
20260504012304 8 292 0.0 0.0 0.00 0.00 0.00 45 1009.2
20260504011803 8 292 0.0 0.0 0.00 0.00 0.00 47 1009.2
20260504011301 9 0 0.0 0.0 0.00 0.00 0.00 50 1009.1
20260504010801 9 292 0.0 0.0 0.00 0.00 0.00 52 1009.0
20260504010259 10 292 0.0 0.0 0.00 0.00 0.00 52 1009.0
20260504005759 10 292 0.0 0.0 0.00 0.00 0.00 52 1009.0
20260504005259 11 292 0.0 0.0 0.00 0.00 0.00 53 1009.0
20260504004757 11 292 0.0 0.0 0.00 0.00 0.00 48 1009.0
20260504004257 11 292 0.0 0.0 0.00 0.00 0.00 47 1008.9
20260504003755 11 292 0.0 0.0 0.00 0.00 0.00 44 1009.0
20260504003735 12 292 0.0 0.0 0.00 0.00 0.00 43 1008.8
20260504002751 12 300 0.0 0.0 0.00 0.00 0.00 42 1008.7
20260504002514 12 302 0.0 0.0 0.00 0.00 0.00 43 1008.6
20260504001750 12 302 0.0 0.0 0.00 0.00 0.00 42 1008.5
20260504001248 12 306 0.0 0.0 0.00 0.00 0.00 42 1008.4
20260504000749 12 306 0.0 0.0 0.00 0.00 0.00 40 1008.4
20260504000247 12 306 0.0 0.0 0.00 0.00 0.00 40 1008.4
20260503235747 13 306 0.0 0.0 0.00 0.00 0.00 39 1008.3
20260503235246 13 306 0.0 0.0 0.00 0.00 0.00 38 1008.2
20260503234745 13 306 0.0 0.0 0.00 0.00 0.00 38 1008.2
20260503234505 13 306 0.0 0.0 0.00 0.00 0.00 38 1008.1
20260503233742 13 307 0.0 0.0 0.00 0.00 0.00 37 1008.0
20260503233243 13 308 0.0 0.0 0.00 0.00 0.00 37 1008.0
20260503233008 13 308 0.0 3.2 0.00 0.00 0.00 36 1007.9
20260503232243 13 309 0.0 3.2 0.00 0.00 0.00 35 1007.9
20260503231743 13 254 0.0 3.2 0.00 0.00 0.00 36 1007.9
20260503231241 13 337 0.0 3.2 0.00 0.00 0.00 36 1007.8
20260503230739 13 296 0.0 3.2 0.00 0.00 0.00 35 1007.8
20260503230239 13 288 0.0 1.6 0.00 0.00 0.00 35 1007.8
20260503230000 13 300 0.0 6.4 0.00 0.00 0.00 34 1007.7
20260503225239 13 276 0.0 8.0 0.00 0.00 0.00 35 1007.7
20260503224738 14 87 0.0 11.3 0.00 0.00 0.00 34 1007.6
20260503224459 14 330 0.0 11.3 0.00 0.00 0.00 33 1007.3
20260503223738 14 317 0.0 6.4 0.00 0.00 0.00 32 1007.6
20260503223234 14 282 1.6 14.5 0.00 0.00 0.00 32 1007.4
20260503222959 14 312 1.6 20.9 0.00 0.00 0.00 32 1007.3
20260503222234 14 275 0.0 20.9 0.00 0.00 0.00 31 1007.3
20260503221735 14 315 0.0 11.3 0.00 0.00 0.00 30 1007.2
20260503221235 15 296 0.0 8.0 0.00 0.00 0.00 29 1007.2
20260503220735 15 290 0.0 11.3 0.00 0.00 0.00 31 1007.1
20260503220235 14 307 0.0 11.3 0.00 0.00 0.00 31 1007.0
20260503215735 14 338 0.0 11.3 0.00 0.00 0.00 29 1007.0
20260503215458 14 317 0.0 11.3 0.00 0.00 0.00 28 1007.0
20260503214730 15 0 1.6 16.1 0.00 0.00 0.00 28 1007.1
20260503214231 15 308 1.6 16.1 0.00 0.00 0.00 27 1007.2
20260503213731 15 68 1.6 16.1 0.00 0.00 0.00 29 1007.1
20260503213231 15 325 1.6 16.1 0.00 0.00 0.00 27 1007.0
20260503212731 15 286 0.0 14.5 0.00 0.00 0.00 27 1006.9
20260503212230 15 5 0.0 6.4 0.00 0.00 0.00 28 1006.9
20260503211730 15 282 0.0 9.7 0.00 0.00 0.00 28 1006.9
20260503211231 15 10 0.0 9.7 0.00 0.00 0.00 29 1006.9
20260503210731 15 321 0.0 6.4 0.00 0.00 0.00 27 1006.9
20260503210227 15 305 0.0 9.7 0.00 0.00 0.00 28 1006.9
20260503205728 15 252 0.0 9.7 0.00 0.00 0.00 28 1006.8
20260503205223 15 224 0.0 8.0 0.00 0.00 0.00 31 1006.9
20260503204723 15 246 0.0 16.1 0.00 0.00 0.00 31 1006.9
20260503204222 15 17 0.0 16.1 0.00 0.00 0.00 31 1006.9
20260503203722 15 355 0.0 17.7 0.00 0.00 0.00 32 1007.0
20260503203218 15 47 0.0 17.7 0.00 0.00 0.00 32 1007.0
20260503202938 15 301 0.0 11.3 0.00 0.00 0.00 31 1007.1
20260503202216 15 298 1.6 20.9 0.00 0.00 0.00 32 1007.1
20260503201716 15 271 3.2 20.9 0.00 0.00 0.00 32 1007.2
20260503201436 15 273 1.6 19.3 0.00 0.00 0.00 32 1007.3
20260503200714 14 246 0.0 14.5 0.00 0.00 0.00 31 1007.2
20260503200440 14 198 1.6 16.1 0.00 0.00 0.00 34 1007.2
20260503195710 14 319 1.6 16.1 0.00 0.00 0.00 35 1007.3
20260503195208 13 69 1.6 16.1 0.00 0.00 0.00 33 1007.3
20260503194707 13 65 0.0 12.9 0.00 0.00 0.00 34 1007.4
20260503194422 13 61 0.0 12.9 0.00 0.00 0.00 38 1007.7
20260503193656 13 63 0.0 20.9 0.00 0.00 0.00 35 1007.8
20260503193407 12 16 1.6 22.5 0.00 0.00 0.00 37 1007.9
20260503192644 12 80 1.6 22.5 0.00 0.00 0.00 34 1007.9
20260503192359 13 5 1.6 22.5 0.00 0.00 0.00 34 1008.0
20260503191852 13 244 1.6 16.1 0.00 0.00 0.00 32 1008.0
20260503191126 14 263 1.6 24.1 0.00 0.00 0.00 34 1008.0
20260503190620 13 348 1.6 24.1 0.00 0.00 0.00 38 1007.9
20260503190332 13 316 3.2 22.5 0.00 0.00 0.00 34 1008.0
20260503185608 13 307 4.8 25.7 0.00 0.00 0.00 37 1007.9
20260503185102 13 319 4.8 30.6 0.00 0.00 0.00 35 1007.9
20260503184556 13 286 1.6 30.6 0.00 0.00 0.00 35 1008.2
20260503184049 13 76 1.6 24.1 0.00 0.00 0.00 37 1008.3
20260503183544 12 248 1.6 24.1 0.00 0.00 0.00 36 1008.2
20260503183038 12 0 0.0 9.7 0.00 0.00 0.00 40 1008.3
20260503182531 12 0 0.0 9.7 0.00 0.00 0.00 41 1008.4
20260503182025 11 20 0.0 6.4 0.00 0.00 0.00 41 1008.5
20260503181518 11 355 0.0 11.3 0.00 0.00 0.00 41 1008.6
20260503181012 11 271 1.6 20.9 0.00 0.00 0.00 39 1008.6
20260503180506 12 0 0.0 20.9 0.00 0.00 0.00 37 1008.6
20260503180000 12 0 0.0 11.3 0.00 0.00 0.00 40 1008.6
20260503175712 11 0 1.6 12.9 0.00 0.00 0.00 39 1008.7
20260503174948 11 0 1.6 12.9 0.00 0.00 0.00 39 1008.8
20260503174442 11 0 0.0 12.9 0.00 0.00 0.00 40 1008.9
20260503174153 11 0 0.0 9.7 0.00 0.00 0.00 42 1008.9
20260503173429 11 62 0.0 12.9 0.00 0.00 0.00 44 1008.9
20260503172924 11 69 0.0 12.9 0.00 0.00 0.00 43 1009.1
20260503172417 10 60 0.0 11.3 0.00 0.00 0.00 43 1009.1
20260503171912 10 267 0.0 11.3 0.00 0.00 0.00 43 1009.1
20260503171406 10 39 0.0 14.5 0.00 0.00 0.00 45 1009.1
20260503171350 10 30 0.0 14.5 0.00 0.00 0.00 43 1009.1
20260503170350 10 287 0.0 12.9 0.00 0.00 0.00 42 1009.2
20260503150632 10 40 1.6 14.5 0.00 0.00 0.00 41 1009.4
20260503150126 10 294 0.0 14.5 0.00 0.00 0.00 40 1009.3
20260503131018 8 144 0.0 11.3 0.00 0.00 0.00 47 1009.7
20260503130517 8 320 0.0 17.7 0.00 0.00 0.00 47 1009.7